This is the latest recevied weather packets stored in our database for station/object KK6LZB. If no packets are shown the sender has not sent any weather packets the latest 1 day(s).
| Time | Temp. | Humidity | Pressure | Rain* | Wind** | Luminosity | Snow |
|---|---|---|---|---|---|---|---|
| 1778035530 | 14.44° C | 84% | 1017.4 hPa | 0 mm | 0.45 m/s, 255° | 1 W/m² | - |
| 1778035226 | 15° C | 83% | 1017.3 hPa | 0 mm | 0 m/s | 1 W/m² | - |
| 1778034922 | 15° C | 83% | 1017.2 hPa | 0 mm | 0.45 m/s, 228° | 3 W/m² | - |
| 1778034620 | 15° C | 83% | 1017.3 hPa | 0 mm | 0 m/s | 5 W/m² | - |
| 1778034317 | 15° C | 83% | 1017 hPa | 0 mm | 0 m/s | 7 W/m² | - |
| 1778034014 | 15° C | 83% | 1017.2 hPa | 0 mm | 1.34 m/s, 232° | 9 W/m² | - |
| 1778033712 | 15° C | 82% | 1017 hPa | 0 mm | 0.45 m/s, 268° | 11 W/m² | - |
| 1778033409 | 15° C | 82% | 1017 hPa | 0 mm | 0 m/s | 14 W/m² | - |
| 1778033107 | 15.56° C | 80% | 1017 hPa | 0 mm | 0.45 m/s, 100° | 17 W/m² | - |
| 1778032804 | 15.56° C | 80% | 1016.9 hPa | 0 mm | 1.79 m/s, 221° | 21 W/m² | - |
| 1778032501 | 15.56° C | 79% | 1016.8 hPa | 0 mm | 1.34 m/s, 349° | 22 W/m² | - |
| 1778032198 | 15.56° C | 78% | 1017.1 hPa | 0 mm | 0.89 m/s, 214° | 24 W/m² | - |
| 1778031895 | 16.11° C | 77% | 1016.8 hPa | 0 mm | 0.45 m/s, 359° | 26 W/m² | - |
| 1778031591 | 16.11° C | 73% | 1016.6 hPa | 0 mm | 0.89 m/s, 185° | 28 W/m² | - |
| 1778031289 | 16.67° C | 72% | 1016.8 hPa | 0 mm | 0 m/s | 32 W/m² | - |
| 1778030985 | 16.67° C | 72% | 1016.8 hPa | 0 mm | 0.89 m/s, 298° | 34 W/m² | - |
| 1778030682 | 16.67° C | 71% | 1016.8 hPa | 0 mm | 1.79 m/s, 226° | 36 W/m² | - |
| 1778030379 | 17.22° C | 70% | 1016.8 hPa | 0 mm | 0.45 m/s, 223° | 51 W/m² | - |
| 1778030076 | 17.78° C | 68% | 1016.6 hPa | 0 mm | 0.89 m/s, 206° | 96 W/m² | - |
| 1778029773 | 17.78° C | 70% | 1016.5 hPa | 0 mm | 0.89 m/s, 320° | 102 W/m² | - |
| 1778029472 | 18.33° C | 70% | 1016.7 hPa | 0 mm | 0.89 m/s, 151° | 116 W/m² | - |
| 1778029167 | 18.33° C | 68% | 1016.7 hPa | 0 mm | 1.34 m/s, 256° | 129 W/m² | - |
| 1778028866 | 18.33° C | 69% | 1016.7 hPa | 0 mm | 0.89 m/s, 339° | 137 W/m² | - |
| 1778028560 | 18.33° C | 66% | 1016.7 hPa | 0 mm | 0.89 m/s, 237° | 149 W/m² | - |
| 1778028259 | 18.33° C | 66% | 1016.6 hPa | 0 mm | 0.45 m/s, 275° | 161 W/m² | - |
* Rain latest hour (hover to see other rain measurements)
** Current wind speed in m/s (hover to see current wind gust speed)